Regional Weather Roundup
Issued by NWS

Home | Current Version | Previous Version | Text Only | Print | Product List | Glossary Off
Versions: 1 2 3 4 5 6 7 8 9 10 11 12 13 14 15 16 17 18 19 20 21 22 23 24 25 26 27 28 29 30 31 32 33 34 35 36 37 38 39 40 41 42 43 44 45 46 47 48 49 50

000
ASUS43 KIND 181009
RWRIN

WEATHER ROUNDUP FOR INDIANA
NATIONAL WEATHER SERVICE INDIANAPOLIS IN
500 AM EST MON DEC 18 2017

NOTE: "FAIR" INDICATES FEW OR NO CLOUDS BELOW 12,000 FEET WITH NO
SIGNIFICANT WEATHER AND/OR OBSTRUCTIONS TO VISIBILITY.

* - STATION DOES NOT REPORT WEATHER SUCH AS PRECIPITATION OR FOG.

+ - STATION NOT QUALITY CONTROLLED BY THE NATIONAL WEATHER SERVICE.
    USE DATA WITH CAUTION...ESPECIALLY DEWPOINT AND RELATIVE
    HUMIDITY OBSERVATIONS.

INZ001>003-010>013-019-020-181100-
NORTHWEST INDIANA

CITY           SKY/WX    TMP DP  RH WIND       PRES   REMARKS
GARY /AIRPORT/ CLOUDY    43  41  93 SW6       29.95F FOG
KNOX *+        CLOUDY    41  39  93 SW8       29.97F
LA PORTE +     CLOUDY    38  38  97 SW8       29.96S FOG     WCI  33
MICHIGAN CITY+ DRIZZLE   39  39 100 SW8       29.96S WCI  34
MONTICELLO +   CLOUDY    40  39  96 SW8       30.00S FOG     WCI  35
RENSSELAER +   CLOUDY    41  37  87 SW13      29.98F FOG
VALPARAISO     CLOUDY    42  40  92 SW12      29.96F FOG

$$

LMZ046-743>745-181100-
SOUTHERN LAKE MICHIGAN

STATION/POSITION TIME  TEMP    WIND        PRES    WAVE
                       AIR SEA DIR/SP/G            HT
                 (UTC) (F)     (DEG/KT/KT) (MB)    (FT)
BURNS HARBOR     0940   42     220/ 12/ 16 1014.9S
MICHIGAN CITY    0940   41     190/ 15/ 17   N/A

$$

INZ004-005-014>016-021>024-181100-
NORTH CENTRAL INDIANA

CITY           SKY/WX    TMP DP  RH WIND       PRES   REMARKS
GOSHEN         CLOUDY    39  37  92 SW10      29.96F FOG     WCI  32
LOGANSPORT +   DRIZZLE   39  37  93 SW9       30.01S WCI  33
PERU/GRISSOM   LGT RAIN  41  41 100 SW12      29.99F FOG
ROCHESTER +    CLOUDY    43  41  93 SW8       29.99F FOG
SOUTH BEND     CLOUDY    38  38 100 SW12      29.96F FOG     WCI  30
WARSAW +       CLOUDY    39  37  93 SW5       29.99S FOG     WCI  36

$$

INZ006>009-017-018-025>027-181100-
NORTHEAST INDIANA

CITY           SKY/WX    TMP DP  RH WIND       PRES   REMARKS
AUBURN +       CLOUDY    39  36  87 SW9       30.00S FOG     WCI  33
FORT WAYNE     CLOUDY    39  37  92 SW12      30.01S FOG     WCI  32
HUNTINGTON +   CLOUDY    39  38  96 SW7       30.00F FOG     WCI  34
KENDALLVILLE + CLOUDY    38  37  97 SW9       29.98S FOG     WCI  32

$$

INZ028-029-035-036-043>045-051>053-181100-
WEST CENTRAL INDIANA

CITY           SKY/WX    TMP DP  RH WIND       PRES   REMARKS
CRAWFORDSVL +  CLOUDY    39  39 100 SW9       30.03S FOG     WCI  32
GREENCASTLE +  CLOUDY    41  39  93 S3        30.04F FOG
LAFAYETTE      CLOUDY    41  41 100 SW7       30.01F FOG
TERRE HAUTE    CLOUDY    43  41  93 SW7       30.05F FOG

$$

INZ030>032-037>040-046>048-054>057-064-065-181100-
CENTRAL INDIANA

CITY           SKY/WX    TMP DP  RH WIND       PRES   REMARKS
FRANKFORT +    CLOUDY    43  42  95 SW12      30.03S FOG
GREENWOOD *+   CLOUDY    44  42  93 SW6       30.05S
INDIANAPOLIS   DRIZZLE   41  40  96 SW12      30.04S FOG
-EAGLE CREEK   FOG       41  40  96 SW7       30.03F VSB 1
KOKOMO +       LGT RAIN  40  39  97 SW10      30.01F FOG     WCI  33
MARION +       CLOUDY    39  37  95 SW10      30.02F FOG     WCI  32
MT COMFORT *+  CLOUDY    39  39 100 S7        30.04S VSB 1   WCI  34
SHELBYVILLE    CLOUDY    41  38  89 S8        30.04F FOG
ZIONSVILLE +   CLOUDY    39  39 100 SW10      30.03S FOG     WCI  32

$$

INZ033-034-041-042-049-050-058-059-181100-
EAST CENTRAL INDIANA

CITY           SKY/WX    TMP DP  RH WIND       PRES   REMARKS
MUNCIE         CLOUDY    41  38  89 SW10      30.02F
RICHMOND +     FOG       36  36 100 S6        30.06S VSB 1/4 WCI  31

$$

INZ060-061-067>069-081>083-085>088-181100-
SOUTHWEST INDIANA

CITY           SKY/WX    TMP DP  RH WIND       PRES   REMARKS
EVANSVILLE     LGT RAIN  44  44 100 SW7       30.11S FOG
HUNTINGBURG +  CLOUDY    43  43 100 S8        30.10F FOG
WASHINGTON +   CLOUDY    43  42  94 SW8       30.08S FOG

$$

INZ062-063-066-070>080-084-089>092-181100-
SOUTH CENTRAL AND SOUTHEAST INDIANA

CITY           SKY/WX    TMP DP  RH WIND       PRES   REMARKS
BEDFORD +      CLOUDY    43  39  87 SW7       30.08S FOG
BLOOMINGTON    CLOUDY    43  40  89 SW8       30.05F FOG
MADISON *+     CLOUDY    41  41 100 S7        30.10S
NORTH VERNON + CLOUDY    39  39 100 S8        30.08  FOG     WCI  34
SEYMOUR +      CLOUDY    43  41  93 SW6       30.08F FOG

$$





USA.gov is the U.S. government's official web portal to all federal, state and local government web resources and services.